Wind_Speed
20 19 18 17 16 15 14 13 13 12 11 10 10 10 9 9 9 8 7 7 6 6 6 5 5 4 4 4 3 3 4 4 4 4 4 5 6 6 7 8 8 8 9
22 21 19 19 18 17 16 15 14 13 12 12 11 11 11 10 9 9 9 8 7 7 6 6 6 5 5 5 4 4 4 4 5 5 5 6 7 7 8 8 9 9 10
24 23 21 20 20 19 18 17 17 15 14 13 12 12 12 11 11 10 10 9 8 8 7 7 7 6 6 6 5 5 5 5 5 6 7 7 8 9 9 9 10 10 11
25 24 23 23 22 21 20 19 19 17 16 15 14 13 13 12 12 11 10 10 9 9 8 8 7 7 7 7 7 6 6 6 6 7 8 9 9 10 10 10 11 11 12
27 26 26 25 24 23 22 21 21 20 18 17 16 15 15 14 13 13 12 11 10 10 10 9 9 8 8 8 8 8 7 8 8 8 9 9 10 10 11 11 12 12 13
29 29 28 27 27 26 25 24 23 22 20 19 18 16 16 16 15 15 14 13 12 11 11 10 10 10 9 9 9 9 9 9 9 10 10 10 11 12 12 13 13 14 14
30 31 30 29 29 28 27 26 25 24 22 21 19 19 18 17 16 16 16 15 13 13 12 12 11 11 11 10 10 10 10 10 10 11 11 12 12 13 13 14 14 14 14
32 32 32 31 31 30 29 28 27 26 25 23 22 20 19 18 18 17 17 16 15 14 14 13 13 12 12 12 12 12 12 12 12 12 13 13 14 14 14 15 15 15 15
33 33 33 32 32 32 31 30 29 27 26 25 24 22 21 20 20 19 18 18 17 16 15 14 13 14 14 14 14 14 13 13 13 14 14 15 15 15 15 16 16 16 16
33 33 34 33 33 33 33 32 31 30 28 26 25 25 23 22 21 20 20 19 18 18 17 16 15 15 15 15 15 15 15 15 15 15 16 16 16 16 17 17 17 17 17
33 33 34 34 34 33 33 33 32 31 30 28 27 26 25 24 23 22 21 21 20 19 19 18 17 17 17 17 17 17 17 17 17 17 17 17 18 18 18 18 18 18 18
33 33 33 33 34 34 34 33 32 32 30 30 28 27 27 26 25 23 22 22 22 21 20 19 19 18 18 18 18 19 19 19 19 19 19 19 19 19 19 19 19 19 20
33 34 34 34 34 34 34 33 33 32 31 31 30 28 28 27 26 25 24 23 23 23 22 21 20 20 20 19 19 20 20 20 20 20 20 20 20 20 21 21 21 21 21
33 34 34 34 35 34 34 34 33 33 32 32 31 30 29 28 28 27 26 24 24 24 23 23 22 22 21 21 21 21 21 21 21 22 22 22 22 22 22 22 23 23 23
34 35 35 34 34 34 35 35 35 34 33 32 32 31 30 29 29 28 28 27 26 25 25 24 24 24 23 23 23 23 22 22 23 23 23 23 23 23 23 23 24 24 25
34 35 36 35 35 35 35 35 35 35 34 33 32 32 31 31 30 29 29 29 28 27 27 26 26 26 25 25 25 25 25 24 24 24 25 25 24 25 25 25 26 26 26
34 35 36 36 36 36 37 35 35 36 35 34 33 32 31 31 31 31 30 30 30 30 29 28 27 27 27 27 27 26 26 26 26 26 26 26 26 26 26 27 27 27 27
34 36 36 37 37 36 37 37 36 37 36 35 34 33 32 32 32 32 32 31 31 31 31 30 29 28 28 28 28 27 28 27 27 28 27 27 27 27 28 28 28 28 28
34 36 37 38 37 37 37 38 38 37 37 37 36 34 32 32 33 33 33 33 33 32 32 32 31 30 29 29 29 29 29 29 29 30 29 29 29 29 29 29 29 29 29
34 36 37 38 37 37 37 38 38 38 38 37 36 36 34 33 33 33 34 34 34 34 33 32 32 31 30 30 30 30 31 31 31 31 31 31 31 31 31 31 31 31 31
33 35 36 37 37 36 37 38 38 38 37 37 36 36 36 34 33 33 34 35 35 35 34 34 33 32 32 32 32 32 32 32 32 33 33 33 32 32 32 32 32 32 33
33 34 35 36 37 36 37 38 37 37 37 37 37 37 36 36 35 34 34 35 36 36 35 36 35 34 33 34 34 34 34 34 33 33 34 34 33 34 34 34 34 34 34
33 34 35 37 37 37 37 38 36 37 36 36 37 37 37 37 36 35 34 34 35 35 36 37 37 36 36 36 35 36 35 36 35 35 36 36 36 36 37 38 37 37 37
31 33 34 36 37 35 35 36 35 35 35 35 36 37 37 37 37 36 36 35 36 36 36 37 37 38 37 37 37 37 37 38 38 37 37 38 38 39 39 39 39 39 39
29 30 33 35 36 35 34 35 34 34 35 34 35 36 37 37 36 36 36 36 36 36 37 38 38 39 39 38 38 39 39 39 39 39 39 39 39 40 41 41 40 40 40
28 29 30 33 34 35 34 34 34 34 34 35 36 36 36 36 36 36 36 37 37 37 37 38 39 39 40 40 40 40 41 40 41 41 41 40 40 41 42 42 42 41 41
Wind_Direction
238 237 234 232 230 229 228 228 227 227 228 228 228 226 224 224 222 221 219 218 218 219 220 222 225 225 228 235 244 259 269 278 284 290 296 300 305 308 309 309 308 308 308
239 237 236 234 232 231 230 229 229 229 231 232 231 229 227 226 225 224 223 222 223 226 228 229 232 236 240 244 249 258 267 275 280 288 295 300 305 307 307 306 307 308 309
239 237 237 235 233 233 232 231 230 230 233 234 234 233 230 227 226 226 225 225 225 229 233 235 237 242 246 249 252 258 265 274 281 286 293 299 302 304 305 306 306 306 308
238 237 237 236 234 234 233 232 232 233 233 234 235 233 231 230 229 227 227 229 229 232 236 237 240 243 248 250 251 256 263 271 279 285 290 295 299 302 303 304 304 304 305
240 238 237 236 235 235 235 234 234 234 233 234 236 236 233 232 232 229 229 233 235 237 239 240 241 244 248 249 253 257 263 269 275 280 286 291 295 298 300 300 301 302 303
241 239 238 237 236 235 235 235 235 235 234 234 235 236 234 233 233 233 233 235 237 240 241 241 243 244 245 249 254 259 264 269 274 279 284 288 292 295 297 298 300 301 301
240 239 239 239 238 236 235 235 235 235 235 234 236 236 235 234 233 235 236 236 238 240 242 243 243 243 246 250 254 258 262 268 273 278 283 286 289 292 295 296 298 299 300
241 240 239 240 239 236 235 234 234 235 235 236 236 238 237 235 235 235 236 237 239 240 243 243 243 244 248 251 254 259 263 267 274 279 283 285 287 290 292 294 295 296 299
241 241 240 239 238 236 234 233 233 233 234 235 237 237 238 236 236 236 237 238 241 242 242 243 245 246 249 252 256 260 264 269 274 279 283 286 288 289 289 291 293 295 296
242 241 239 238 237 236 234 233 232 233 234 236 237 237 238 237 238 238 237 239 241 243 244 244 246 249 251 253 257 260 265 269 273 278 282 286 288 289 289 290 291 293 294
241 240 239 237 235 235 234 233 232 233 234 236 237 237 238 238 238 239 238 238 241 243 244 245 247 250 253 255 258 261 265 269 273 277 280 283 285 286 287 288 289 290 292
241 239 238 237 235 234 233 233 233 233 234 235 237 238 239 238 238 238 239 239 240 243 245 246 248 251 254 257 259 261 265 269 273 277 280 282 282 284 285 286 286 287 289
240 239 238 236 234 233 233 233 233 234 235 235 237 238 239 237 238 239 240 240 241 243 244 246 248 251 254 258 260 263 266 269 272 276 279 282 282 284 284 284 284 285 287
238 237 236 235 234 233 234 233 233 234 235 236 236 238 239 238 238 240 241 242 242 243 245 247 250 252 256 259 261 263 265 269 271 274 278 281 282 283 283 284 283 284 285
237 235 235 234 233 232 233 233 234 235 236 237 238 239 240 239 240 240 241 242 242 244 247 249 251 252 255 259 261 263 265 269 271 273 276 280 281 280 281 283 283 283 283
236 235 234 233 232 231 231 233 234 235 236 237 239 240 240 240 241 241 242 244 246 247 249 251 252 253 255 258 260 264 267 269 271 273 275 277 279 280 280 282 283 283 283
235 234 233 232 232 232 233 233 234 235 236 236 238 240 241 240 241 241 243 244 247 249 250 251 252 254 256 259 260 263 266 269 271 273 275 276 278 280 281 281 283 283 283
234 233 232 231 232 232 232 233 233 234 236 235 236 239 240 240 241 242 243 245 247 249 250 252 253 255 257 259 261 263 266 269 271 273 274 275 276 279 280 281 281 282 283
234 232 232 231 234 233 232 233 235 235 236 236 236 238 240 243 244 245 246 247 249 250 250 252 253 255 257 259 261 263 265 268 271 273 274 274 275 277 279 281 281 281 282
235 233 232 231 234 233 233 233 234 236 236 237 238 240 242 245 246 247 248 249 250 251 251 252 254 255 257 259 261 263 265 268 271 273 274 275 275 277 278 280 281 280 280
232 231 231 231 233 234 235 234 235 238 238 238 240 243 244 246 247 248 249 250 250 251 251 251 253 255 257 258 261 264 265 268 271 273 275 275 275 276 277 279 280 280 280
233 232 231 231 233 236 236 235 236 239 240 240 242 244 245 246 248 250 251 251 251 252 252 254 255 257 258 259 262 264 266 268 271 273 274 275 276 276 277 278 279 279 279
234 233 231 232 234 236 236 236 237 238 239 241 243 245 246 247 248 250 251 251 251 253 255 255 257 260 260 260 263 265 266 269 271 273 274 275 276 276 277 277 278 279 279
235 234 233 233 235 236 237 237 239 241 241 243 244 245 246 247 248 248 249 251 253 254 254 255 257 260 262 263 264 265 268 270 271 273 274 276 276 276 277 277 278 279 278
238 238 237 235 237 238 240 240 240 241 240 243 244 245 246 247 248 248 249 250 253 253 253 255 258 260 261 263 264 266 268 270 272 273 275 276 277 277 277 277 278 278 278
241 241 240 239 240 239 241 241 240 241 240 242 243 244 247 248 248 249 250 252 253 254 254 255 258 260 262 263 266 267 268 270 272 273 274 276 277 277 277 277 277 278 277
Height
5852 5853 5853 5854 5855 5856 5856 5857 5858 5858 5859 5859 5860 5860 5861 5862 5862 5863 5863 5864 5864 5865 5865 5865 5866 5866 5866 5866 5866 5867 5867 5867 5867 5866 5866 5866 5866 5865 5865 5864 5863 5863 5862
5848 5849 5850 5851 5852 5853 5854 5855 5856 5856 5857 5857 5858 5858 5859 5859 5860 5861 5861 5862 5863 5863 5863 5864 5864 5865 5865 5865 5865 5865 5865 5865 5865 5865 5865 5864 5864 5863 5863 5862 5862 5861 5860
5843 5845 5846 5848 5849 5850 5851 5852 5853 5853 5854 5855 5855 5856 5856 5857 5858 5859 5859 5860 5861 5861 5862 5862 5862 5863 5863 5863 5863 5864 5864 5864 5864 5863 5863 5863 5862 5861 5861 5860 5860 5859 5858
5839 5840 5842 5843 5844 5846 5847 5848 5849 5850 5851 5852 5852 5853 5854 5855 5856 5857 5857 5858 5859 5859 5860 5860 5861 5861 5861 5861 5862 5862 5862 5862 5862 5861 5861 5860 5860 5859 5859 5858 5858 5857 5856
5833 5835 5837 5838 5840 5841 5843 5844 5845 5846 5847 5848 5849 5850 5851 5852 5853 5854 5855 5856 5856 5857 5857 5858 5858 5859 5859 5859 5860 5860 5860 5860 5860 5859 5859 5858 5858 5857 5857 5856 5855 5854 5853
5828 5829 5831 5833 5834 5836 5838 5839 5841 5842 5843 5844 5845 5846 5848 5849 5850 5851 5852 5853 5854 5854 5855 5855 5856 5856 5857 5857 5857 5857 5857 5857 5857 5857 5856 5856 5855 5855 5854 5853 5852 5852 5851
5821 5823 5825 5827 5829 5830 5832 5834 5835 5837 5839 5840 5841 5842 5844 5845 5846 5847 5849 5850 5851 5851 5852 5853 5853 5854 5854 5854 5855 5855 5855 5854 5854 5854 5854 5853 5853 5852 5851 5850 5850 5849 5848
5814 5816 5818 5820 5822 5824 5825 5827 5830 5831 5833 5835 5837 5838 5839 5841 5842 5844 5845 5846 5847 5848 5849 5850 5850 5851 5851 5851 5852 5852 5852 5852 5851 5851 5851 5850 5850 5849 5848 5847 5847 5846 5844
5807 5809 5811 5813 5815 5816 5819 5821 5823 5825 5827 5829 5831 5833 5835 5837 5838 5839 5841 5842 5844 5845 5846 5846 5847 5847 5848 5848 5848 5849 5849 5848 5848 5848 5847 5847 5846 5846 5845 5844 5843 5842 5841
5799 5801 5804 5806 5808 5810 5812 5814 5817 5819 5821 5823 5825 5828 5830 5832 5833 5835 5837 5838 5840 5841 5842 5843 5843 5844 5844 5845 5845 5845 5845 5845 5845 5844 5844 5843 5843 5842 5841 5841 5840 5839 5838
5792 5794 5796 5798 5801 5803 5805 5808 5811 5813 5815 5818 5820 5822 5824 5826 5829 5831 5832 5834 5835 5837 5838 5839 5839 5840 5840 5841 5841 5841 5841 5841 5841 5841 5840 5840 5839 5838 5837 5837 5836 5835 5834
5784 5786 5788 5791 5794 5797 5799 5802 5804 5807 5809 5812 5814 5816 5819 5821 5823 5826 5827 5829 5831 5832 5833 5834 5835 5836 5836 5837 5837 5837 5837 5837 5837 5836 5836 5835 5835 5834 5833 5832 5832 5831 5830
5776 5778 5781 5784 5787 5790 5793 5796 5798 5801 5803 5806 5808 5810 5813 5815 5818 5820 5823 5824 5825 5827 5828 5829 5830 5831 5832 5832 5832 5832 5832 5832 5832 5832 5832 5831 5830 5830 5829 5828 5827 5826 5825
5768 5771 5774 5777 5781 5784 5787 5790 5792 5795 5797 5800 5803 5805 5807 5809 5812 5815 5817 5819 5820 5822 5823 5824 5825 5826 5827 5827 5827 5828 5828 5828 5827 5827 5827 5826 5826 5825 5824 5823 5822 5821 5820
5761 5764 5767 5771 5774 5777 5779 5783 5786 5789 5792 5794 5797 5799 5801 5803 5806 5809 5811 5813 5815 5816 5818 5819 5820 5821 5821 5822 5822 5823 5823 5822 5822 5822 5821 5821 5820 5820 5819 5818 5817 5816 5815
5753 5756 5760 5764 5767 5770 5773 5776 5779 5782 5785 5788 5790 5793 5795 5797 5800 5802 5805 5807 5809 5810 5812 5813 5814 5815 5816 5816 5817 5817 5817 5817 5817 5816 5816 5815 5815 5814 5813 5812 5811 5810 5809
5745 5749 5752 5756 5760 5763 5766 5770 5773 5776 5779 5781 5784 5786 5788 5791 5793 5796 5798 5800 5802 5804 5805 5807 5808 5809 5810 5810 5811 5811 5811 5811 5811 5810 5810 5809 5809 5808 5807 5806 5805 5804 5803
5737 5741 5745 5749 5752 5755 5759 5763 5766 5769 5772 5774 5777 5779 5782 5784 5787 5789 5791 5793 5795 5797 5799 5800 5801 5802 5803 5804 5804 5805 5805 5805 5804 5804 5803 5803 5802 5802 5801 5800 5799 5798 5797
5729 5733 5737 5741 5744 5748 5752 5756 5759 5762 5765 5768 5770 5773 5775 5778 5780 5782 5784 5786 5788 5790 5792 5793 5795 5796 5796 5797 5798 5798 5798 5798 5798 5797 5797 5796 5796 5795 5794 5793 5792 5791 5790
5721 5725 5729 5734 5737 5741 5744 5748 5752 5755 5757 5760 5763 5766 5768 5771 5773 5775 5777 5779 5781 5783 5784 5786 5788 5788 5789 5790 5791 5791 5791 5791 5791 5790 5790 5789 5788 5788 5787 5786 5785 5784 5783
5713 5717 5721 5726 5729 5733 5737 5741 5744 5747 5750 5753 5756 5758 5761 5763 5765 5768 5770 5771 5773 5775 5777 5779 5780 5781 5782 5783 5783 5783 5783 5783 5783 5783 5782 5781 5781 5780 5779 5778 5777 5776 5775
5706 5710 5714 5718 5722 5725 5729 5733 5736 5740 5743 5746 5749 5751 5753 5756 5758 5760 5762 5764 5766 5768 5769 5771 5772 5774 5774 5775 5775 5775 5776 5776 5775 5775 5774 5774 5773 5772 5771 5770 5769 5768 5767
5699 5702 5706 5710 5714 5717 5721 5724 5727 5731 5734 5738 5741 5744 5746 5748 5750 5752 5754 5756 5758 5760 5762 5763 5764 5766 5766 5767 5767 5768 5768 5768 5767 5767 5766 5765 5764 5764 5763 5762 5760 5759 5758
5693 5696 5699 5702 5706 5710 5713 5716 5719 5723 5727 5730 5733 5735 5738 5740 5742 5744 5746 5747 5749 5751 5753 5755 5756 5757 5758 5758 5758 5759 5759 5759 5759 5758 5757 5756 5755 5754 5753 5752 5751 5750 5749
5686 5689 5692 5695 5698 5702 5705 5709 5712 5716 5720 5722 5725 5727 5729 5732 5734 5736 5737 5739 5741 5743 5744 5746 5747 5748 5749 5749 5750 5750 5749 5749 5749 5749 5748 5747 5745 5744 5743 5742 5741 5739 5738
5680 5683 5686 5689 5692 5695 5698 5701 5704 5707 5711 5714 5716 5719 5721 5723 5725 5727 5728 5730 5732 5734 5735 5737 5738 5739 5739 5740 5740 5740 5740 5739 5739 5738 5738 5737 5735 5734 5732 5731 5730 5729 5728